{"data":{"norad_id":61015,"epoch":"2026-09-22T21:30:33.941088Z","epoch_age_seconds":84703,"freshness":"FRESH","line1":"1 61015U 24159E   26265.89622617  .00001229  00000+0  17118-3 0  9990","line2":"2 61015  50.0046 350.0430 0012301  71.1945 289.0327 14.84501715111290","mean_motion":14.84501715,"eccentricity":0.0012301,"inclination_deg":50.0046,"raan_deg":350.043,"arg_perigee_deg":71.1945,"mean_anomaly_deg":289.0327,"bstar":0.00017118,"rev_number":11129,"period_min":97.0022456323,"perigee_km":606.54788646422,"apogee_km":623.75277195154,"semimajor_km":6993.2873292079,"source":"CELESTRAK","updated_at":"2026-09-23T09:00:20.799717Z"}}